Torna al catalogo

STARLINK-31781

AttivoComunicazioniVLEO
NORAD 59632·PAYLOAD·🇺🇸 United States

Lanciato May 3, 2024 da Cape Canaveral Space Force Station

Loading…

Prossimi Passaggi (prossime 24 ore)

TLE

AggiornatoSource: CelesTrak SupGP

Epoca: Sep 14, 2026, 21:42 UTC

1 59632C 24082B   26257.90465278 -.00057184  00000+0 -20717-2 0  2576
2 59632  43.0011 137.1158 0001325 271.9180 293.8748 15.27599329    15

Traccia STARLINK-31781 in tempo reale con AllMySat

Download on the App Store